Time,TemperatureF,DewpointF,PressureIn,WindDirection,WindDirectionDegrees,WindSpeedMPH,WindSpeedGustMPH,Humidity,HourlyPrecipIn,Conditions,Clouds,dailyrainin,SoftwareType,DateUTC
2013-01-14 00:04:00,47.0,47.0,29.99,WSW,245,0.0,1.0,99,0.00,,,0.00,,2013-01-14 05:04:00,
2013-01-14 00:12:00,47.0,47.0,29.99,WSW,245,0.0,1.0,99,0.00,,,0.00,,2013-01-14 05:12:00,
2013-01-14 00:22:00,47.0,47.0,30.00,ESE,106,0.0,2.0,99,0.00,,,0.00,,2013-01-14 05:22:00,
2013-01-14 00:33:00,47.0,47.0,30.00,ESE,108,0.0,1.0,99,0.00,,,0.00,,2013-01-14 05:33:00,
2013-01-14 00:43:00,47.0,47.0,30.00,ESE,108,0.0,1.0,99,0.00,,,0.00,,2013-01-14 05:43:00,
2013-01-14 00:53:00,47.0,47.0,30.00,WNW,300,0.0,1.0,99,0.00,,,0.00,,2013-01-14 05:53:00,
2013-01-14 01:03:00,47.0,47.0,29.99,NNE,29,0.0,1.0,99,0.00,,,0.00,,2013-01-14 06:03:00,
2013-01-14 01:12:00,47.0,47.0,29.99,NNE,29,0.0,1.0,99,0.00,,,0.00,,2013-01-14 06:12:00,
2013-01-14 01:23:00,46.0,46.0,30.00,ESE,106,0.0,1.0,99,0.00,,,0.00,,2013-01-14 06:23:00,
2013-01-14 01:33:00,46.0,46.0,29.99,ESE,105,0.0,1.0,99,0.00,,,0.00,,2013-01-14 06:33:00,
2013-01-14 01:43:00,46.0,46.0,29.99,ESE,105,0.0,1.0,99,0.00,,,0.00,,2013-01-14 06:43:00,
2013-01-14 01:53:00,46.0,46.0,29.98,ESE,103,0.0,1.0,99,0.00,,,0.00,,2013-01-14 06:53:00,
2013-01-14 02:02:00,46.0,46.0,29.99,SE,134,0.0,2.0,99,0.00,,,0.00,,2013-01-14 07:02:00,
2013-01-14 02:12:00,46.0,46.0,29.99,SE,134,0.0,2.0,99,0.00,,,0.00,,2013-01-14 07:12:00,
2013-01-14 02:23:00,46.0,46.0,30.00,ESE,104,0.0,0.0,99,0.00,,,0.00,,2013-01-14 07:23:00,
2013-01-14 02:33:00,46.0,46.0,29.99,ESE,103,0.0,1.0,99,0.00,,,0.00,,2013-01-14 07:33:00,
2013-01-14 02:43:00,46.0,46.0,29.99,ESE,103,0.0,1.0,99,0.00,,,0.00,,2013-01-14 07:43:00,
2013-01-14 02:53:00,46.0,46.0,29.99,ESE,103,0.0,1.0,99,0.00,,,0.00,,2013-01-14 07:53:00,
2013-01-14 03:02:00,46.0,46.0,29.98,ESE,105,0.0,1.0,99,0.00,,,0.00,,2013-01-14 08:02:00,
2013-01-14 03:12:00,46.0,46.0,29.98,ESE,105,0.0,1.0,99,0.00,,,0.00,,2013-01-14 08:12:00,
2013-01-14 03:22:00,46.0,46.0,29.97,ESE,104,0.0,0.0,99,0.00,,,0.00,,2013-01-14 08:22:00,
2013-01-14 03:33:00,46.0,46.0,29.97,ESE,105,0.0,1.0,99,0.00,,,0.00,,2013-01-14 08:33:00,
2013-01-14 03:42:00,46.0,46.0,29.97,ESE,105,0.0,1.0,99,0.00,,,0.00,,2013-01-14 08:42:00,
2013-01-14 03:53:00,46.0,46.0,29.96,ESE,105,0.0,2.0,99,0.00,,,0.00,,2013-01-14 08:53:00,
2013-01-14 04:03:00,46.0,46.0,29.95,ESE,103,0.0,2.0,99,0.00,,,0.00,,2013-01-14 09:03:00,
2013-01-14 04:12:00,46.0,46.0,29.95,ESE,103,0.0,2.0,99,0.00,,,0.00,,2013-01-14 09:12:00,
2013-01-14 04:23:00,46.0,46.0,29.95,ESE,115,1.0,3.0,100,0.00,,,0.00,,2013-01-14 09:23:00,
2013-01-14 04:33:00,47.0,47.0,29.94,ESE,117,0.0,3.0,100,0.00,,,0.00,,2013-01-14 09:33:00,
2013-01-14 04:43:00,47.0,47.0,29.94,ESE,117,0.0,3.0,100,0.00,,,0.00,,2013-01-14 09:43:00,
2013-01-14 04:53:00,47.0,47.0,29.95,North,352,1.0,4.0,100,0.00,,,0.00,,2013-01-14 09:53:00,
2013-01-14 05:02:00,47.0,47.0,29.94,SE,129,0.0,4.0,100,0.00,,,0.00,,2013-01-14 10:02:00,
2013-01-14 05:12:00,47.0,47.0,29.94,SE,129,0.0,4.0,100,0.00,,,0.00,,2013-01-14 10:12:00,
2013-01-14 05:23:00,47.0,47.0,29.95,SE,143,0.0,2.0,100,0.00,,,0.00,,2013-01-14 10:23:00,
2013-01-14 05:32:00,47.0,47.0,29.95,ESE,121,0.0,7.0,100,0.00,,,0.00,,2013-01-14 10:32:00,
2013-01-14 05:42:00,47.0,47.0,29.95,ESE,121,0.0,7.0,100,0.00,,,0.00,,2013-01-14 10:42:00,
2013-01-14 05:53:00,46.0,46.0,29.93,WSW,250,0.0,4.0,100,0.00,,,0.00,,2013-01-14 10:53:00,
2013-01-14 06:02:00,46.0,46.0,29.92,NW,304,0.0,2.0,99,0.00,,,0.00,,2013-01-14 11:02:00,
2013-01-14 06:12:00,46.0,46.0,29.92,NW,304,0.0,2.0,99,0.00,,,0.00,,2013-01-14 11:12:00,
2013-01-14 06:22:00,46.0,46.0,29.92,NE,56,1.0,4.0,100,0.00,,,0.00,,2013-01-14 11:22:00,
2013-01-14 06:33:00,46.0,46.0,29.92,NE,56,1.0,4.0,100,0.00,,,0.00,,2013-01-14 11:33:00,
2013-01-14 06:43:00,46.0,46.0,29.92,NE,56,1.0,4.0,100,0.00,,,0.00,,2013-01-14 11:43:00,
2013-01-14 06:53:00,46.0,46.0,29.86,SSE,156,1.0,5.0,100,0.00,,,0.00,,2013-01-14 11:53:00,
2013-01-14 07:03:00,47.0,47.0,29.90,ESE,107,2.0,6.0,100,0.00,,,0.00,,2013-01-14 12:03:00,
2013-01-14 07:12:00,47.0,47.0,29.90,ESE,107,2.0,6.0,100,0.00,,,0.00,,2013-01-14 12:12:00,
2013-01-14 07:23:00,47.0,47.0,29.92,WNW,295,1.0,4.0,100,0.00,,,0.00,,2013-01-14 12:23:00,
2013-01-14 07:33:00,48.0,48.0,29.93,NW,316,0.0,2.0,100,0.00,,,0.00,,2013-01-14 12:33:00,
2013-01-14 07:43:00,48.0,48.0,29.93,NW,316,0.0,2.0,100,0.00,,,0.00,,2013-01-14 12:43:00,
2013-01-14 07:53:00,47.0,47.0,29.93,East,100,0.0,1.0,100,0.00,,,0.00,,2013-01-14 12:53:00,
2013-01-14 08:03:00,47.0,47.0,29.93,NNE,13,0.0,1.0,100,0.00,,,0.00,,2013-01-14 13:03:00,
2013-01-14 08:13:00,47.0,47.0,29.93,NNE,13,0.0,1.0,100,0.00,,,0.00,,2013-01-14 13:13:00,
2013-01-14 08:23:00,47.0,47.0,29.95,ESE,110,0.0,1.0,100,0.00,,,0.00,,2013-01-14 13:23:00,
2013-01-14 08:33:00,47.0,47.0,29.95,ESE,108,0.0,1.0,99,0.00,,,0.00,,2013-01-14 13:33:00,
2013-01-14 08:43:00,47.0,47.0,29.95,ESE,108,0.0,1.0,99,0.00,,,0.00,,2013-01-14 13:43:00,
2013-01-14 08:53:00,47.0,47.0,29.97,NW,323,0.0,2.0,99,0.00,,,0.00,,2013-01-14 13:53:00,
2013-01-14 09:03:00,47.0,47.0,29.97,East,87,0.0,1.0,100,0.00,,,0.00,,2013-01-14 14:03:00,
2013-01-14 09:13:00,47.0,47.0,29.97,East,87,0.0,1.0,100,0.00,,,0.00,,2013-01-14 14:13:00,
2013-01-14 09:23:00,47.0,47.0,29.98,ESE,105,0.0,1.0,100,0.00,,,0.00,,2013-01-14 14:23:00,
2013-01-14 09:33:00,48.0,48.0,29.98,ESE,106,0.0,1.0,100,0.00,,,0.00,,2013-01-14 14:33:00,
2013-01-14 09:43:00,48.0,48.0,29.98,ESE,106,0.0,1.0,100,0.00,,,0.00,,2013-01-14 14:43:00,
2013-01-14 09:53:00,48.0,48.0,29.99,ESE,105,0.0,1.0,100,0.00,,,0.00,,2013-01-14 14:53:00,
2013-01-14 10:03:00,49.0,49.0,30.01,West,277,0.0,3.0,100,0.00,,,0.00,,2013-01-14 15:03:00,
2013-01-14 10:12:00,49.0,49.0,30.01,West,277,0.0,3.0,100,0.00,,,0.00,,2013-01-14 15:12:00,
2013-01-14 10:23:00,49.0,49.0,30.01,SE,141,2.0,4.0,100,0.00,,,0.00,,2013-01-14 15:23:00,
2013-01-14 10:33:00,49.0,49.0,30.01,East,95,1.0,3.0,99,0.00,,,0.00,,2013-01-14 15:33:00,
2013-01-14 10:43:00,49.0,49.0,30.01,East,95,1.0,3.0,99,0.00,,,0.00,,2013-01-14 15:43:00,
2013-01-14 10:53:00,50.0,50.0,30.00,ESE,121,1.0,5.0,99,0.00,,,0.00,,2013-01-14 15:53:00,
2013-01-14 11:03:00,51.0,50.0,29.99,SW,225,1.0,3.0,98,0.00,,,0.00,,2013-01-14 16:03:00,
2013-01-14 11:12:00,51.0,50.0,29.99,SW,225,1.0,3.0,98,0.00,,,0.00,,2013-01-14 16:12:00,
2013-01-14 11:23:00,51.0,50.0,29.99,WSW,242,1.0,2.0,96,0.00,,,0.00,,2013-01-14 16:23:00,
2013-01-14 11:33:00,52.0,50.0,29.98,ESE,107,1.0,2.0,94,0.00,,,0.00,,2013-01-14 16:33:00,
2013-01-14 11:43:00,52.0,50.0,29.98,ESE,107,1.0,2.0,94,0.00,,,0.00,,2013-01-14 16:43:00,
2013-01-14 11:53:00,52.0,50.0,29.98,SSE,149,0.0,2.0,93,0.00,,,0.00,,2013-01-14 16:53:00,
2013-01-14 12:03:00,53.0,50.0,29.98,ESE,105,2.0,5.0,91,0.00,,,0.00,,2013-01-14 17:03:00,
2013-01-14 12:12:00,53.0,50.0,29.98,ESE,105,2.0,5.0,91,0.00,,,0.00,,2013-01-14 17:12:00,
2013-01-14 12:23:00,55.0,50.0,29.98,West,281,2.0,6.0,84,0.00,,,0.00,,2013-01-14 17:23:00,
2013-01-14 12:33:00,55.0,50.0,29.98,ESE,114,1.0,4.0,83,0.00,,,0.00,,2013-01-14 17:33:00,
2013-01-14 12:43:00,55.0,50.0,29.98,ESE,114,1.0,4.0,83,0.00,,,0.00,,2013-01-14 17:43:00,
2013-01-14 12:54:00,57.0,51.0,29.97,SE,146,1.0,5.0,79,0.00,,,0.00,,2013-01-14 17:54:00,
2013-01-14 13:03:00,57.0,50.0,29.97,WNW,284,2.0,8.0,77,0.00,,,0.00,,2013-01-14 18:03:00,
2013-01-14 13:13:00,57.0,50.0,29.97,WNW,284,2.0,8.0,77,0.00,,,0.00,,2013-01-14 18:13:00,
2013-01-14 13:23:00,58.0,45.0,29.99,West,280,3.0,16.0,62,0.00,,,0.00,,2013-01-14 18:23:00,
2013-01-14 13:33:00,58.0,45.0,29.99,NNW,335,4.0,14.0,62,0.00,,,0.00,,2013-01-14 18:33:00,
2013-01-14 13:43:00,58.0,45.0,29.99,NNW,335,4.0,14.0,62,0.00,,,0.00,,2013-01-14 18:43:00,
2013-01-14 13:53:00,59.0,46.0,30.00,East,82,4.0,9.0,62,0.00,,,0.00,,2013-01-14 18:53:00,
2013-01-14 14:03:00,59.0,46.0,30.01,ESE,108,2.0,11.0,62,0.00,,,0.00,,2013-01-14 19:03:00,
2013-01-14 14:13:00,59.0,46.0,30.01,ESE,108,2.0,11.0,62,0.00,,,0.00,,2013-01-14 19:13:00,
2013-01-14 14:22:00,59.0,46.0,30.03,NW,314,4.0,9.0,61,0.00,,,0.00,,2013-01-14 19:22:00,
2013-01-14 14:33:00,58.0,45.0,30.03,NW,309,2.0,11.0,62,0.00,,,0.00,,2013-01-14 19:33:00,
2013-01-14 14:43:00,58.0,45.0,30.03,NW,309,2.0,11.0,62,0.00,,,0.00,,2013-01-14 19:43:00,
2013-01-14 14:53:00,56.0,38.0,30.05,North,4,3.0,10.0,50,0.00,,,0.00,,2013-01-14 19:53:00,
2013-01-14 15:03:00,56.0,36.0,30.06,ENE,68,4.0,14.0,47,0.00,,,0.00,,2013-01-14 20:03:00,
2013-01-14 15:13:00,56.0,36.0,30.06,ENE,68,4.0,14.0,47,0.00,,,0.00,,2013-01-14 20:13:00,
2013-01-14 15:23:00,55.0,35.0,30.08,NW,312,3.0,13.0,47,0.00,,,0.00,,2013-01-14 20:23:00,
2013-01-14 15:33:00,54.0,34.0,30.07,WNW,293,3.0,8.0,46,0.00,,,0.00,,2013-01-14 20:33:00,
2013-01-14 15:43:00,54.0,34.0,30.07,WNW,293,3.0,8.0,46,0.00,,,0.00,,2013-01-14 20:43:00,
2013-01-14 15:53:00,54.0,35.0,30.09,West,281,1.0,5.0,48,0.00,,,0.00,,2013-01-14 20:53:00,
2013-01-14 16:03:00,53.0,35.0,30.10,WNW,302,1.0,7.0,51,0.00,,,0.00,,2013-01-14 21:03:00,
2013-01-14 16:13:00,53.0,35.0,30.10,WNW,302,1.0,7.0,51,0.00,,,0.00,,2013-01-14 21:13:00,
2013-01-14 16:23:00,51.0,34.0,30.11,WNW,293,0.0,2.0,53,0.00,,,0.00,,2013-01-14 21:23:00,
2013-01-14 16:33:00,50.0,34.0,30.11,NW,312,1.0,7.0,54,0.00,,,0.00,,2013-01-14 21:33:00,
2013-01-14 16:43:00,50.0,34.0,30.11,NW,312,1.0,7.0,54,0.00,,,0.00,,2013-01-14 21:43:00,
2013-01-14 16:53:00,48.0,33.0,30.11,WNW,293,2.0,4.0,56,0.00,,,0.00,,2013-01-14 21:53:00,
2013-01-14 17:03:00,47.0,34.0,30.11,NW,309,1.0,5.0,60,0.00,,,0.00,,2013-01-14 22:03:00,
2013-01-14 17:12:00,47.0,34.0,30.11,NW,309,1.0,5.0,60,0.00,,,0.00,,2013-01-14 22:12:00,
2013-01-14 17:23:00,47.0,30.0,30.13,NNW,343,2.0,4.0,52,0.00,,,0.00,,2013-01-14 22:23:00,
2013-01-14 17:33:00,47.0,30.0,30.13,WNW,299,0.0,3.0,51,0.00,,,0.00,,2013-01-14 22:33:00,
2013-01-14 17:43:00,47.0,30.0,30.13,WNW,299,0.0,3.0,51,0.00,,,0.00,,2013-01-14 22:43:00,
2013-01-14 17:53:00,45.0,30.0,30.14,NW,309,1.0,1.0,55,0.00,,,0.00,,2013-01-14 22:53:00,
2013-01-14 18:03:00,44.0,30.0,30.14,NW,309,1.0,2.0,58,0.00,,,0.00,,2013-01-14 23:03:00,
2013-01-14 18:12:00,44.0,30.0,30.14,NW,309,1.0,2.0,58,0.00,,,0.00,,2013-01-14 23:12:00,
2013-01-14 18:23:00,44.0,29.0,30.14,NW,326,0.0,1.0,55,0.00,,,0.00,,2013-01-14 23:23:00,
2013-01-14 18:33:00,43.0,30.0,30.14,NW,325,1.0,1.0,61,0.00,,,0.00,,2013-01-14 23:33:00,
2013-01-14 18:43:00,43.0,30.0,30.14,NW,325,1.0,1.0,61,0.00,,,0.00,,2013-01-14 23:43:00,
2013-01-14 18:53:00,42.0,27.0,30.16,WNW,299,1.0,2.0,56,0.00,,,0.00,,2013-01-14 23:53:00,
2013-01-14 19:03:00,43.0,28.0,30.17,NNW,333,0.0,2.0,55,0.00,,,0.00,,2013-01-15 00:03:00,
2013-01-14 19:12:00,43.0,28.0,30.17,NNW,333,0.0,2.0,55,0.00,,,0.00,,2013-01-15 00:12:00,
2013-01-14 19:23:00,41.0,29.0,30.17,NNW,327,0.0,2.0,61,0.00,,,0.00,,2013-01-15 00:23:00,
2013-01-14 19:33:00,42.0,29.0,30.18,WNW,291,1.0,3.0,60,0.00,,,0.00,,2013-01-15 00:33:00,
2013-01-14 19:43:00,42.0,29.0,30.18,WNW,291,1.0,3.0,60,0.00,,,0.00,,2013-01-15 00:43:00,
2013-01-14 19:53:00,41.0,29.0,30.20,NW,321,0.0,2.0,61,0.00,,,0.00,,2013-01-15 00:53:00,
2013-01-14 20:02:00,41.0,29.0,30.20,North,8,0.0,2.0,61,0.00,,,0.00,,2013-01-15 01:02:00,
2013-01-14 20:12:00,41.0,29.0,30.20,North,8,0.0,2.0,61,0.00,,,0.00,,2013-01-15 01:12:00,
2013-01-14 20:22:00,42.0,30.0,30.22,NW,318,2.0,7.0,62,0.00,,,0.00,,2013-01-15 01:22:00,
2013-01-14 20:32:00,42.0,29.0,30.21,WNW,297,2.0,6.0,60,0.00,,,0.00,,2013-01-15 01:32:00,
2013-01-14 20:43:00,42.0,29.0,30.21,WNW,297,2.0,6.0,60,0.00,,,0.00,,2013-01-15 01:43:00,
2013-01-14 20:52:00,42.0,30.0,30.22,WNW,297,0.0,6.0,61,0.00,,,0.00,,2013-01-15 01:52:00,
2013-01-14 21:02:00,42.0,30.0,30.22,North,356,2.0,3.0,61,0.00,,,0.00,,2013-01-15 02:02:00,
2013-01-14 21:12:00,42.0,30.0,30.22,North,356,2.0,3.0,61,0.00,,,0.00,,2013-01-15 02:12:00,
2013-01-14 21:23:00,41.0,29.0,30.22,WNW,300,1.0,3.0,63,0.00,,,0.00,,2013-01-15 02:23:00,
2013-01-14 21:33:00,41.0,30.0,30.22,WNW,287,1.0,3.0,64,0.00,,,0.00,,2013-01-15 02:33:00,
2013-01-14 21:42:00,41.0,30.0,30.22,WNW,287,1.0,3.0,64,0.00,,,0.00,,2013-01-15 02:42:00,
2013-01-14 21:53:00,40.0,30.0,30.21,WNW,289,1.0,2.0,67,0.00,,,0.00,,2013-01-15 02:53:00,
2013-01-14 22:03:00,40.0,29.0,30.21,WNW,293,1.0,4.0,65,0.00,,,0.00,,2013-01-15 03:03:00,
2013-01-14 22:12:00,40.0,29.0,30.21,WNW,293,1.0,4.0,65,0.00,,,0.00,,2013-01-15 03:12:00,
2013-01-14 22:22:00,40.0,29.0,30.22,WNW,296,3.0,4.0,64,0.00,,,0.00,,2013-01-15 03:22:00,
2013-01-14 22:33:00,40.0,29.0,30.22,WNW,295,0.0,6.0,64,0.00,,,0.00,,2013-01-15 03:33:00,
2013-01-14 22:42:00,40.0,29.0,30.22,WNW,295,0.0,6.0,64,0.00,,,0.00,,2013-01-15 03:42:00,
2013-01-14 22:53:00,39.0,28.0,30.24,NNW,332,2.0,8.0,64,0.00,,,0.00,,2013-01-15 03:53:00,
2013-01-14 23:02:00,39.0,28.0,30.24,NW,315,2.0,3.0,64,0.00,,,0.00,,2013-01-15 04:02:00,
2013-01-14 23:12:00,39.0,28.0,30.24,NW,315,2.0,3.0,64,0.00,,,0.00,,2013-01-15 04:12:00,
2013-01-14 23:22:00,39.0,27.0,30.24,NW,318,1.0,5.0,63,0.00,,,0.00,,2013-01-15 04:22:00,
2013-01-14 23:32:00,38.0,27.0,30.24,WNW,291,1.0,3.0,63,0.00,,,0.00,,2013-01-15 04:32:00,
2013-01-14 23:42:00,38.0,27.0,30.24,WNW,291,1.0,3.0,63,0.00,,,0.00,,2013-01-15 04:42:00,
2013-01-14 23:52:00,38.0,27.0,30.24,NW,313,1.0,3.0,65,0.00,,,0.00,,2013-01-15 04:52:00,